,,,PA_Meas_PMT16A,,PR_Meas_QMR101_102,,RH_Meas_QMH101,,SR_Meas_QMS101,,TA_Meas_QMH101,,GenWind,,GenWind,
date,time,status,PA,status,PR,status,RH,status,SR,status,TA,status,DirAvg,status,SpdAvg,
2010-03-10, 00:00:04,VALID,1007.25,VALID,0,VALID,94.7278,VALID,0,VALID,23.7814,VALID,347,VALID,0,
2010-03-10, 00:01:04,VALID,1007.24,VALID,0,VALID,94.7202,VALID,0,VALID,23.7619,VALID,347,VALID,0,
2010-03-10, 00:02:04,VALID,1007.21,VALID,0,VALID,94.7278,VALID,0,VALID,23.7619,VALID,347,VALID,0,
2010-03-10, 00:03:04,VALID,1007.21,VALID,0,VALID,94.7507,VALID,0,VALID,23.7832,VALID,347,VALID,0,
2010-03-10, 00:04:04,VALID,1007.19,VALID,0,VALID,94.7507,VALID,0,VALID,23.7637,VALID,347,VALID,0,
2010-03-10, 00:05:04,VALID,1007.17,VALID,0,VALID,94.7583,VALID,0,VALID,23.7425,VALID,347,VALID,0,
2010-03-10, 00:06:04,VALID,1007.18,VALID,0,VALID,94.766,VALID,0,VALID,23.7619,VALID,347,VALID,0,
2010-03-10, 00:07:04,VALID,1007.18,VALID,0,VALID,94.7812,VALID,0,VALID,23.7637,VALID,347,VALID,0,
2010-03-10, 00:08:04,VALID,1007.17,VALID,0,VALID,94.7888,VALID,0,VALID,23.7619,VALID,347,VALID,0,
2010-03-10, 00:09:04,VALID,1007.17,VALID,0,VALID,94.7888,VALID,0,VALID,23.7619,VALID,347,VALID,0,
2010-03-10, 00:10:04,VALID,1007.19,VALID,0,VALID,94.7965,VALID,0,VALID,23.8203,VALID,347,VALID,0,
2010-03-10, 00:11:04,VALID,1007.17,VALID,0,VALID,94.8041,VALID,0,VALID,23.8398,VALID,347,VALID,0,
2010-03-10, 00:12:04,VALID,1007.18,VALID,0,VALID,94.827,VALID,0,VALID,23.8593,VALID,347,VALID,0,
2010-03-10, 00:13:04,VALID,1007.16,VALID,0,VALID,94.8499,VALID,0,VALID,23.8593,VALID,347,VALID,0,
2010-03-10, 00:14:04,VALID,1007.16,VALID,0,VALID,94.8651,VALID,0,VALID,23.8185,VALID,347,VALID,0,
2010-03-10, 00:15:04,VALID,1007.18,VALID,0,VALID,94.8804,VALID,0,VALID,23.7796,VALID,347,VALID,0,
2010-03-10, 00:16:04,VALID,1007.18,VALID,0,VALID,94.8728,VALID,0,VALID,23.7814,VALID,347,VALID,0,
2010-03-10, 00:17:04,VALID,1007.22,VALID,0,VALID,94.8499,VALID,0,VALID,23.7601,VALID,347,VALID,0,
2010-03-10, 00:18:04,VALID,1007.21,VALID,0,VALID,94.8422,VALID,0,VALID,23.7814,VALID,347,VALID,0,
2010-03-10, 00:19:04,VALID,1007.22,VALID,0,VALID,94.8575,VALID,0,VALID,23.7619,VALID,347,VALID,0,
2010-03-10, 00:20:04,VALID,1007.25,VALID,0,VALID,94.8422,VALID,0,VALID,23.7814,VALID,347,VALID,0,
2010-03-10, 00:21:04,VALID,1007.26,VALID,0,VALID,94.8575,VALID,0,VALID,23.7796,VALID,347,VALID,0,
2010-03-10, 00:22:04,VALID,1007.29,VALID,0,VALID,94.8575,VALID,0,VALID,23.7814,VALID,347,VALID,0,
2010-03-10, 00:23:04,VALID,1007.27,VALID,0,VALID,94.8575,VALID,0,VALID,23.7619,VALID,347,VALID,0,
2010-03-10, 00:24:04,VALID,1007.26,VALID,0,VALID,94.8422,VALID,0,VALID,23.7814,VALID,347,VALID,0,
2010-03-10, 00:25:04,VALID,1007.26,VALID,0,VALID,94.8346,VALID,0,VALID,23.7814,VALID,347,VALID,0,
2010-03-10, 00:26:04,VALID,1007.29,VALID,0,VALID,94.8422,VALID,0,VALID,23.7814,VALID,347,VALID,0,
2010-03-10, 00:27:04,VALID,1007.27,VALID,0,VALID,94.8422,VALID,0,VALID,23.7619,VALID,347,VALID,0,
2010-03-10, 00:28:04,VALID,1007.25,VALID,0,VALID,94.8346,VALID,0,VALID,23.7619,VALID,347,VALID,0,
2010-03-10, 00:29:04,VALID,1007.26,VALID,0,VALID,94.8651,VALID,0,VALID,23.7619,VALID,347,VALID,0,
2010-03-10, 00:30:04,VALID,1007.25,VALID,0,VALID,94.8422,VALID,0,VALID,23.7407,VALID,347,VALID,0,
2010-03-10, 00:31:04,VALID,1007.25,VALID,0,VALID,94.8499,VALID,0,VALID,23.7407,VALID,347,VALID,0,
2010-03-10, 00:32:04,VALID,1007.29,VALID,0,VALID,94.8346,VALID,0.100563,VALID,23.7407,VALID,347,VALID,0,
2010-03-10, 00:33:04,VALID,1007.25,VALID,0,VALID,94.8499,VALID,0,VALID,23.7212,VALID,347,VALID,0,
2010-03-10, 00:34:04,VALID,1007.22,VALID,0,VALID,94.8499,VALID,0,VALID,23.7212,VALID,347,VALID,0,
2010-03-10, 00:35:04,VALID,1007.22,VALID,0,VALID,94.8499,VALID,0,VALID,23.7,VALID,347,VALID,0,
2010-03-10, 00:36:04,VALID,1007.21,VALID,0,VALID,94.8422,VALID,0,VALID,23.7212,VALID,347,VALID,0,
2010-03-10, 00:37:04,VALID,1007.2,VALID,0,VALID,94.8575,VALID,0,VALID,23.7425,VALID,347,VALID,0,
2010-03-10, 00:38:04,VALID,1007.19,VALID,0,VALID,94.8728,VALID,0,VALID,23.7212,VALID,347,VALID,0,
2010-03-10, 00:39:04,VALID,1007.17,VALID,0,VALID,94.8804,VALID,0,VALID,23.7194,VALID,347,VALID,0,
2010-03-10, 00:40:04,VALID,1007.17,VALID,0,VALID,94.888,VALID,0.100563,VALID,23.7407,VALID,347,VALID,0,
2010-03-10, 00:41:04,VALID,1007.13,VALID,0,VALID,94.8804,VALID,0,VALID,23.7796,VALID,347,VALID,0,
2010-03-10, 00:42:04,VALID,1007.14,VALID,0,VALID,94.8956,VALID,0,VALID,23.8185,VALID,347,VALID,0,
2010-03-10, 00:43:04,VALID,1007.15,VALID,0,VALID,94.9109,VALID,0.100563,VALID,23.8185,VALID,347,VALID,0,
2010-03-10, 00:44:04,VALID,1007.08,VALID,0,VALID,94.9338,VALID,0,VALID,23.8398,VALID,347,VALID,0,
2010-03-10, 00:45:04,VALID,1007.1,VALID,0,VALID,94.9414,VALID,0.100563,VALID,23.838,VALID,347,VALID,0,
2010-03-10, 00:46:04,VALID,1007.08,VALID,0,VALID,94.9338,VALID,0.100563,VALID,23.8575,VALID,347,VALID,0,
2010-03-10, 00:47:04,VALID,1007.07,VALID,0,VALID,94.949,VALID,0.100563,VALID,23.8575,VALID,347,VALID,0,
2010-03-10, 00:48:04,VALID,1007.01,VALID,0,VALID,94.9414,VALID,0.100563,VALID,23.8751,VALID,347,VALID,0,
2010-03-10, 00:49:04,VALID,1007,VALID,0,VALID,94.949,VALID,0.100563,VALID,23.8964,VALID,347,VALID,0,
2010-03-10, 00:50:04,VALID,1006.94,VALID,0,VALID,94.949,VALID,0.100563,VALID,23.8964,VALID,347,VALID,0,
2010-03-10, 00:51:04,VALID,1006.93,VALID,0,VALID,94.9643,VALID,0.100563,VALID,23.8556,VALID,347,VALID,0,
2010-03-10, 00:52:04,VALID,1006.92,VALID,0,VALID,94.9643,VALID,0,VALID,23.8769,VALID,347,VALID,0,
2010-03-10, 00:53:04,VALID,1006.9,VALID,0,VALID,94.949,VALID,0.100563,VALID,23.8964,VALID,347,VALID,0,
2010-03-10, 00:54:04,VALID,1006.89,VALID,0,VALID,94.949,VALID,0,VALID,23.9159,VALID,347,VALID,0,
2010-03-10, 00:55:04,VALID,1006.9,VALID,0,VALID,94.949,VALID,0,VALID,23.9159,VALID,347,VALID,0,
2010-03-10, 00:56:04,VALID,1006.89,VALID,0,VALID,94.949,VALID,0,VALID,23.9159,VALID,347,VALID,0,
2010-03-10, 00:57:04,VALID,1006.86,VALID,0,VALID,94.9567,VALID,0,VALID,23.8964,VALID,347,VALID,0,
2010-03-10, 00:58:04,VALID,1006.82,VALID,0,VALID,94.9414,VALID,0,VALID,23.8964,VALID,347,VALID,0,
2010-03-10, 00:59:04,VALID,1006.79,VALID,0,VALID,94.949,VALID,0,VALID,23.9159,VALID,347,VALID,0,
2010-03-10, 01:00:04,VALID,1006.74,VALID,0,VALID,94.9338,VALID,0,VALID,23.8769,VALID,347,VALID,0,
2010-03-10, 01:01:04,VALID,1006.74,VALID,0,VALID,94.9262,VALID,0,VALID,23.8769,VALID,347,VALID,0,
2010-03-10, 01:02:04,VALID,1006.68,VALID,0,VALID,94.9338,VALID,0,VALID,23.8575,VALID,347,VALID,0,
2010-03-10, 01:03:04,VALID,1006.65,VALID,0,VALID,94.9109,VALID,0,VALID,23.8167,VALID,347,VALID,0,
2010-03-10, 01:04:04,VALID,1006.68,VALID,0,VALID,94.888,VALID,0.100563,VALID,23.8575,VALID,347,VALID,0,
2010-03-10, 01:05:04,VALID,1006.63,VALID,0,VALID,94.8804,VALID,0,VALID,23.8769,VALID,347,VALID,0,
2010-03-10, 01:06:04,VALID,1006.61,VALID,0,VALID,94.888,VALID,0,VALID,23.838,VALID,347,VALID,0,
2010-03-10, 01:07:04,VALID,1006.59,VALID,0,VALID,94.8728,VALID,0,VALID,23.8575,VALID,347,VALID,0,
2010-03-10, 01:08:04,VALID,1006.56,VALID,0,VALID,94.8804,VALID,0.100563,VALID,23.8575,VALID,347,VALID,0,
2010-03-10, 01:09:04,VALID,1006.54,VALID,0,VALID,94.8728,VALID,0,VALID,23.8575,VALID,347,VALID,0,
2010-03-10, 01:10:04,VALID,1006.51,VALID,0,VALID,94.8804,VALID,0,VALID,23.838,VALID,347,VALID,0,
2010-03-10, 01:11:04,VALID,1006.49,VALID,0,VALID,94.8651,VALID,0.100563,VALID,23.838,VALID,347,VALID,0,
2010-03-10, 01:12:04,VALID,1006.46,VALID,0,VALID,94.8575,VALID,0,VALID,23.8575,VALID,347,VALID,0,
2010-03-10, 01:13:04,VALID,1006.44,VALID,0,VALID,94.8575,VALID,0.100563,VALID,23.8575,VALID,347,VALID,0,
2010-03-10, 01:14:04,VALID,1006.44,VALID,0,VALID,94.8422,VALID,0.100563,VALID,23.8362,VALID,347,VALID,0,
2010-03-10, 01:15:04,VALID,1006.43,VALID,0,VALID,94.8422,VALID,0,VALID,23.8575,VALID,347,VALID,0,
2010-03-10, 01:16:04,VALID,1006.41,VALID,0,VALID,94.8422,VALID,0.100563,VALID,23.8982,VALID,347,VALID,0,
2010-03-10, 01:17:04,VALID,1006.4,VALID,0,VALID,94.8499,VALID,0,VALID,23.8964,VALID,347,VALID,0,
2010-03-10, 01:18:04,VALID,1006.4,VALID,0,VALID,94.8194,VALID,0,VALID,23.9177,VALID,347,VALID,0,
2010-03-10, 01:19:04,VALID,1006.36,VALID,0,VALID,94.8422,VALID,0,VALID,23.9177,VALID,347,VALID,0,
2010-03-10, 01:20:04,VALID,1006.37,VALID,0,VALID,94.8728,VALID,0,VALID,23.8769,VALID,347,VALID,0,
2010-03-10, 01:21:04,VALID,1006.34,VALID,0,VALID,94.8117,VALID,0,VALID,23.8787,VALID,347,VALID,0,
2010-03-10, 01:22:04,VALID,1006.35,VALID,0,VALID,94.827,VALID,0,VALID,23.8787,VALID,347,VALID,0,
2010-03-10, 01:23:04,VALID,1006.36,VALID,0,VALID,94.7965,VALID,0,VALID,23.838,VALID,347,VALID,0,
2010-03-10, 01:24:04,VALID,1006.34,VALID,0,VALID,94.7965,VALID,0,VALID,23.8593,VALID,347,VALID,0,
2010-03-10, 01:25:04,VALID,1006.32,VALID,0,VALID,94.7888,VALID,0,VALID,23.8398,VALID,347,VALID,0,
2010-03-10, 01:26:04,VALID,1006.27,VALID,0,VALID,94.7965,VALID,0.100563,VALID,23.8593,VALID,347,VALID,0,
2010-03-10, 01:27:04,VALID,1006.27,VALID,0,VALID,94.8041,VALID,0.100563,VALID,23.8185,VALID,347,VALID,0,
2010-03-10, 01:28:04,VALID,1006.27,VALID,0,VALID,94.8041,VALID,0,VALID,23.8185,VALID,347,VALID,0,
2010-03-10, 01:29:04,VALID,1006.26,VALID,0,VALID,94.7965,VALID,0.100563,VALID,23.7991,VALID,347,VALID,0,
2010-03-10, 01:30:04,VALID,1006.24,VALID,0,VALID,94.8194,VALID,0,VALID,23.8009,VALID,347,VALID,0,
2010-03-10, 01:31:04,VALID,1006.22,VALID,0,VALID,94.8194,VALID,0,VALID,23.8009,VALID,347,VALID,0,
2010-03-10, 01:32:04,VALID,1006.23,VALID,0,VALID,94.8194,VALID,0,VALID,23.8027,VALID,347,VALID,0,
2010-03-10, 01:33:04,VALID,1006.19,VALID,0,VALID,94.8346,VALID,0,VALID,23.7814,VALID,347,VALID,0,
2010-03-10, 01:34:04,VALID,1006.16,VALID,0,VALID,94.8346,VALID,0,VALID,23.7814,VALID,347,VALID,0,
2010-03-10, 01:35:04,VALID,1006.18,VALID,0,VALID,94.8575,VALID,0,VALID,23.8009,VALID,347,VALID,0,
2010-03-10, 01:36:04,VALID,1006.15,VALID,0,VALID,94.8422,VALID,0,VALID,23.8416,VALID,347,VALID,0,
2010-03-10, 01:37:04,VALID,1006.14,VALID,0,VALID,94.8346,VALID,0,VALID,23.8787,VALID,5,VALID,0.766406,
2010-03-10, 01:38:04,VALID,1006.12,VALID,0,VALID,94.827,VALID,0,VALID,23.9371,VALID,353,VALID,0.726953,
2010-03-10, 01:39:04,VALID,1006.06,VALID,0,VALID,94.8194,VALID,0,VALID,24.0363,VALID,348,VALID,0.568359,
2010-03-10, 01:40:04,VALID,1006.03,VALID,0,VALID,94.8194,VALID,0,VALID,24.1142,VALID,347,VALID,0.516406,
2010-03-10, 01:41:04,VALID,1005.99,VALID,0,VALID,94.7888,VALID,0,VALID,24.1123,VALID,348,VALID,0.686328,
2010-03-10, 01:42:04,VALID,1005.97,VALID,0,VALID,94.7202,VALID,0,VALID,24.1707,VALID,336,VALID,0.757422,
2010-03-10, 01:43:04,VALID,1005.93,VALID,0,VALID,94.6057,VALID,0,VALID,24.2097,VALID,344,VALID,0.571094,
2010-03-10, 01:44:04,VALID,1005.91,VALID,0,VALID,94.4684,VALID,0,VALID,24.2291,VALID,351,VALID,0.387109,
2010-03-10, 01:45:04,VALID,1005.88,VALID,0,VALID,94.2701,VALID,0,VALID,24.2699,VALID,353,VALID,0.698047,
2010-03-10, 01:46:04,VALID,1005.93,VALID,0,VALID,94.1022,VALID,0,VALID,24.2857,VALID,353,VALID,0.393359,
2010-03-10, 01:47:04,VALID,1005.91,VALID,0,VALID,93.9497,VALID,0.100563,VALID,24.3246,VALID,345,VALID,0.253906,
2010-03-10, 01:48:04,VALID,1005.89,VALID,0,VALID,93.7361,VALID,0,VALID,24.3849,VALID,349,VALID,0.915625,
2010-03-10, 01:49:04,VALID,1005.9,VALID,0,VALID,93.553,VALID,0,VALID,24.4609,VALID,351,VALID,0.225391,
2010-03-10, 01:50:04,VALID,1005.9,VALID,0,VALID,93.2402,VALID,0,VALID,24.5212,VALID,351,VALID,0.150391,
2010-03-10, 01:51:04,VALID,1005.9,VALID,0,VALID,92.9198,VALID,0,VALID,24.5406,VALID,351,VALID,0.0195313,
2010-03-10, 01:52:04,VALID,1005.9,VALID,0,VALID,92.6909,VALID,0.100563,VALID,24.5388,VALID,357,VALID,0.573047,
2010-03-10, 01:53:04,VALID,1005.89,VALID,0,VALID,92.546,VALID,0.100563,VALID,24.5582,VALID,344,VALID,0.207031,
2010-03-10, 01:54:04,VALID,1005.87,VALID,0,VALID,92.3629,VALID,0,VALID,24.599,VALID,344,VALID,0.45,
2010-03-10, 01:55:04,VALID,1005.89,VALID,0,VALID,92.1874,VALID,0.100563,VALID,24.6166,VALID,344,VALID,0.510938,
2010-03-10, 01:56:04,VALID,1005.88,VALID,0,VALID,92.0424,VALID,0,VALID,24.5953,VALID,344,VALID,0.412109,
2010-03-10, 01:57:04,VALID,1005.88,VALID,0,VALID,91.867,VALID,0.100563,VALID,24.6361,VALID,344,VALID,0.517578,
2010-03-10, 01:58:04,VALID,1005.89,VALID,0,VALID,91.7373,VALID,0,VALID,24.6574,VALID,4,VALID,0.778125,
2010-03-10, 01:59:04,VALID,1005.86,VALID,0,VALID,91.6076,VALID,0,VALID,24.6556,VALID,352,VALID,0.643359,
2010-03-10, 02:00:04,VALID,1005.85,VALID,0,VALID,91.4092,VALID,0,VALID,24.6556,VALID,352,VALID,0.4875,
2010-03-10, 02:01:04,VALID,1005.85,VALID,0,VALID,91.4474,VALID,0,VALID,24.6769,VALID,352,VALID,0.706641,
2010-03-10, 02:02:04,VALID,1005.86,VALID,0,VALID,91.4169,VALID,0,VALID,24.6574,VALID,352,VALID,0.6375,
2010-03-10, 02:03:04,VALID,1005.84,VALID,0,VALID,91.4169,VALID,0,VALID,24.638,VALID,352,VALID,0.617578,
2010-03-10, 02:04:04,VALID,1005.86,VALID,0,VALID,91.3787,VALID,0,VALID,24.638,VALID,350,VALID,0.571484,
2010-03-10, 02:05:04,VALID,1005.85,VALID,0,VALID,91.4245,VALID,0,VALID,24.6166,VALID,349,VALID,0.643359,
2010-03-10, 02:06:04,VALID,1005.86,VALID,0,VALID,91.5084,VALID,0,VALID,24.6166,VALID,348,VALID,0.53125,
2010-03-10, 02:07:04,VALID,1005.85,VALID,0,VALID,91.4474,VALID,0,VALID,24.6574,VALID,346,VALID,0.607422,
2010-03-10, 02:08:04,VALID,1005.88,VALID,0,VALID,91.4016,VALID,0,VALID,24.6556,VALID,332,VALID,0.8875,
2010-03-10, 02:09:04,VALID,1005.89,VALID,0,VALID,91.3635,VALID,0.100563,VALID,24.6556,VALID,340,VALID,0.429297,
2010-03-10, 02:10:04,VALID,1005.86,VALID,0,VALID,91.2948,VALID,0,VALID,24.6964,VALID,345,VALID,0.380469,
2010-03-10, 02:11:04,VALID,1005.87,VALID,0,VALID,91.2567,VALID,0.100563,VALID,24.675,VALID,345,VALID,0.296875,
2010-03-10, 02:12:04,VALID,1005.86,VALID,0,VALID,91.2185,VALID,0,VALID,24.6537,VALID,349,VALID,0.486328,
2010-03-10, 02:13:04,VALID,1005.86,VALID,0,VALID,91.2338,VALID,0.100563,VALID,24.675,VALID,332,VALID,0.230859,
2010-03-10, 02:14:04,VALID,1005.85,VALID,0,VALID,91.2109,VALID,0,VALID,24.6556,VALID,328,VALID,0.679688,
2010-03-10, 02:15:04,VALID,1005.83,VALID,0,VALID,91.1956,VALID,0,VALID,24.6788,VALID,340,VALID,0.567969,
2010-03-10, 02:16:04,VALID,1005.84,VALID,0,VALID,91.0278,VALID,0,VALID,24.6361,VALID,342,VALID,0.354297,
2010-03-10, 02:17:04,VALID,1005.85,VALID,0,VALID,91.0354,VALID,0,VALID,24.5777,VALID,342,VALID,0.482422,
2010-03-10, 02:18:04,VALID,1005.86,VALID,0,VALID,91.1804,VALID,0,VALID,24.5388,VALID,342,VALID,0.424219,
2010-03-10, 02:19:04,VALID,1005.86,VALID,0,VALID,91.4245,VALID,0.100563,VALID,24.5193,VALID,341,VALID,0.410937,
2010-03-10, 02:20:04,VALID,1005.87,VALID,0,VALID,91.4092,VALID,0,VALID,24.4804,VALID,342,VALID,0.351172,
2010-03-10, 02:21:04,VALID,1005.9,VALID,0,VALID,91.6457,VALID,0,VALID,24.4414,VALID,342,VALID,0.334375,
2010-03-10, 02:22:04,VALID,1005.87,VALID,0,VALID,91.7144,VALID,0,VALID,24.422,VALID,342,VALID,0.340625,
2010-03-10, 02:23:04,VALID,1005.88,VALID,0,VALID,91.7449,VALID,0,VALID,24.3636,VALID,342,VALID,0.304688,
2010-03-10, 02:24:04,VALID,1005.9,VALID,0,VALID,91.8899,VALID,0,VALID,24.3052,VALID,342,VALID,0.339453,
2010-03-10, 02:25:04,VALID,1005.9,VALID,0,VALID,92.1187,VALID,0,VALID,24.3052,VALID,349,VALID,0.627344,
2010-03-10, 02:26:04,VALID,1005.91,VALID,0,VALID,92.2789,VALID,0,VALID,24.2875,VALID,349,VALID,0.177344,
2010-03-10, 02:27:04,VALID,1005.88,VALID,0,VALID,92.3552,VALID,0,VALID,24.2662,VALID,349,VALID,0,
2010-03-10, 02:28:04,VALID,1005.9,VALID,0,VALID,92.3781,VALID,0,VALID,24.2468,VALID,349,VALID,0.0695312,
2010-03-10, 02:29:04,VALID,1005.86,VALID,0,VALID,92.3705,VALID,0,VALID,24.2078,VALID,348,VALID,0.324609,
2010-03-10, 02:30:04,VALID,1005.87,VALID,0,VALID,92.4468,VALID,0,VALID,24.1689,VALID,349,VALID,0.253906,
2010-03-10, 02:31:04,VALID,1005.89,VALID,0,VALID,92.6146,VALID,0,VALID,24.1689,VALID,349,VALID,0.185937,
2010-03-10, 02:32:04,VALID,1005.9,VALID,0,VALID,92.729,VALID,0,VALID,24.1689,VALID,346,VALID,0.204688,
2010-03-10, 02:33:04,VALID,1005.91,VALID,0,VALID,92.7901,VALID,0.100563,VALID,24.1494,VALID,348,VALID,0.349219,
2010-03-10, 02:34:04,VALID,1005.91,VALID,0,VALID,92.874,VALID,0,VALID,24.1494,VALID,347,VALID,0.34375,
2010-03-10, 02:35:04,VALID,1005.92,VALID,0,VALID,92.8892,VALID,0,VALID,24.1494,VALID,347,VALID,0.151562,
2010-03-10, 02:36:04,VALID,1005.92,VALID,0,VALID,92.8435,VALID,0,VALID,24.13,VALID,347,VALID,0.324219,
2010-03-10, 02:37:04,VALID,1005.93,VALID,0,VALID,92.7367,VALID,0.100563,VALID,24.0716,VALID,348,VALID,0.443359,
2010-03-10, 02:38:04,VALID,1005.93,VALID,0,VALID,92.6756,VALID,0,VALID,24.0326,VALID,348,VALID,0.305859,
2010-03-10, 02:39:04,VALID,1005.88,VALID,0,VALID,92.7901,VALID,0,VALID,24.0345,VALID,348,VALID,0.401563,
2010-03-10, 02:40:04,VALID,1005.91,VALID,0,VALID,92.7824,VALID,0,VALID,23.9353,VALID,349,VALID,0.530859,
2010-03-10, 02:41:04,VALID,1005.91,VALID,0,VALID,92.8053,VALID,0,VALID,23.8769,VALID,349,VALID,0.303125,
2010-03-10, 02:42:04,VALID,1005.93,VALID,0,VALID,92.9655,VALID,0,VALID,23.8167,VALID,349,VALID,0.246484,
2010-03-10, 02:43:04,VALID,1005.92,VALID,0,VALID,93.1715,VALID,0,VALID,23.8185,VALID,349,VALID,0.221484,
2010-03-10, 02:44:04,VALID,1005.94,VALID,0,VALID,93.2631,VALID,0,VALID,23.8009,VALID,349,VALID,0.494531,
2010-03-10, 02:45:04,VALID,1005.95,VALID,0,VALID,93.2936,VALID,0,VALID,23.7425,VALID,349,VALID,0.290625,
2010-03-10, 02:46:04,VALID,1005.93,VALID,0,VALID,93.5072,VALID,0,VALID,23.7212,VALID,349,VALID,0.137109,
2010-03-10, 02:47:04,VALID,1005.96,VALID,0,VALID,93.6445,VALID,0.100563,VALID,23.7425,VALID,349,VALID,0.183594,
2010-03-10, 02:48:04,VALID,1005.92,VALID,0,VALID,93.7971,VALID,0,VALID,23.7212,VALID,349,VALID,0.184375,
2010-03-10, 02:49:04,VALID,1005.93,VALID,0,VALID,93.8886,VALID,0,VALID,23.7017,VALID,349,VALID,0.254687,
2010-03-10, 02:50:04,VALID,1005.94,VALID,0,VALID,93.881,VALID,0,VALID,23.6434,VALID,349,VALID,0.355078,
2010-03-10, 02:51:04,VALID,1005.91,VALID,0,VALID,93.9191,VALID,0,VALID,23.6257,VALID,349,VALID,0.2625,
2010-03-10, 02:52:04,VALID,1005.93,VALID,0,VALID,93.9802,VALID,0,VALID,23.6239,VALID,349,VALID,0.35,
2010-03-10, 02:53:04,VALID,1005.93,VALID,0,VALID,94.0946,VALID,0,VALID,23.6239,VALID,348,VALID,0.310547,
2010-03-10, 02:54:04,VALID,1005.97,VALID,0,VALID,94.2243,VALID,0,VALID,23.6434,VALID,348,VALID,0.179297,
2010-03-10, 02:55:04,VALID,1005.95,VALID,0,VALID,94.2548,VALID,0,VALID,23.6434,VALID,348,VALID,0.295703,
2010-03-10, 02:56:04,VALID,1006,VALID,0,VALID,94.3082,VALID,0.100563,VALID,23.6434,VALID,343,VALID,0.232812,
2010-03-10, 02:57:04,VALID,1005.99,VALID,0,VALID,94.3616,VALID,0.100563,VALID,23.6434,VALID,343,VALID,0.333984,
2010-03-10, 02:58:04,VALID,1006.01,VALID,0,VALID,94.3692,VALID,0.100563,VALID,23.6628,VALID,343,VALID,0.271094,
2010-03-10, 02:59:04,VALID,1006,VALID,0,VALID,94.3998,VALID,0,VALID,23.6628,VALID,344,VALID,0,
2010-03-10, 03:00:04,VALID,1006.02,VALID,0,VALID,94.3998,VALID,0.100563,VALID,23.6434,VALID,344,VALID,0.3625,
2010-03-10, 03:01:04,VALID,1005.99,VALID,0,VALID,94.3921,VALID,0,VALID,23.6841,VALID,344,VALID,0.294531,
2010-03-10, 03:02:04,VALID,1006,VALID,0,VALID,94.3998,VALID,0.100563,VALID,23.7017,VALID,342,VALID,0.308203,
2010-03-10, 03:03:04,VALID,1005.98,VALID,0,VALID,94.3998,VALID,0,VALID,23.7212,VALID,342,VALID,0.271875,
2010-03-10, 03:04:04,VALID,1005.98,VALID,0,VALID,94.3998,VALID,0,VALID,23.7407,VALID,342,VALID,0.120703,
2010-03-10, 03:05:04,VALID,1005.98,VALID,0,VALID,94.4074,VALID,0,VALID,23.7407,VALID,329,VALID,0.14375,
2010-03-10, 03:06:04,VALID,1005.98,VALID,0,VALID,94.3845,VALID,0,VALID,23.7601,VALID,329,VALID,0.225391,
2010-03-10, 03:07:04,VALID,1005.99,VALID,0,VALID,94.3769,VALID,0,VALID,23.7601,VALID,329,VALID,0.142188,
2010-03-10, 03:08:04,VALID,1005.98,VALID,0,VALID,94.3235,VALID,0.100563,VALID,23.7389,VALID,329,VALID,0.0792969,
2010-03-10, 03:09:04,VALID,1006.01,VALID,0,VALID,94.3235,VALID,0,VALID,23.7796,VALID,329,VALID,0.236328,
2010-03-10, 03:10:04,VALID,1006,VALID,0,VALID,94.2777,VALID,0,VALID,23.8398,VALID,331,VALID,0.751953,
2010-03-10, 03:11:04,VALID,1005.99,VALID,0,VALID,94.2701,VALID,0,VALID,23.838,VALID,332,VALID,0.366797,
2010-03-10, 03:12:04,VALID,1005.99,VALID,0,VALID,94.1938,VALID,0,VALID,23.838,VALID,332,VALID,0.401172,
2010-03-10, 03:13:04,VALID,1005.97,VALID,0,VALID,94.1785,VALID,0,VALID,23.8982,VALID,332,VALID,0.395703,
2010-03-10, 03:14:04,VALID,1005.97,VALID,0,VALID,94.0412,VALID,0,VALID,23.838,VALID,332,VALID,0.410156,
2010-03-10, 03:15:04,VALID,1005.96,VALID,0,VALID,93.9573,VALID,0,VALID,23.8575,VALID,332,VALID,0.463672,
2010-03-10, 03:16:04,VALID,1005.97,VALID,0,VALID,93.9344,VALID,0.100563,VALID,23.8769,VALID,335,VALID,0.370703,
2010-03-10, 03:17:04,VALID,1005.94,VALID,0,VALID,93.8657,VALID,0.100563,VALID,23.8769,VALID,354,VALID,0.534375,
2010-03-10, 03:18:04,VALID,1005.98,VALID,0,VALID,93.8657,VALID,0.100563,VALID,23.8946,VALID,354,VALID,0.501172,
2010-03-10, 03:19:04,VALID,1005.94,VALID,0,VALID,93.8657,VALID,0,VALID,23.9353,VALID,352,VALID,0.317578,
2010-03-10, 03:20:04,VALID,1005.92,VALID,0,VALID,93.8657,VALID,0.100563,VALID,23.9742,VALID,352,VALID,0.509766,
2010-03-10, 03:21:04,VALID,1005.93,VALID,0,VALID,93.8581,VALID,0,VALID,24.0132,VALID,345,VALID,0.576172,
2010-03-10, 03:22:04,VALID,1005.97,VALID,0,VALID,93.7971,VALID,0.100563,VALID,24.0697,VALID,346,VALID,0.449609,
2010-03-10, 03:23:04,VALID,1005.95,VALID,0,VALID,93.6598,VALID,0,VALID,24.1318,VALID,346,VALID,0.360938,
2010-03-10, 03:24:04,VALID,1005.94,VALID,0,VALID,93.4614,VALID,0,VALID,24.13,VALID,346,VALID,0.276563,
2010-03-10, 03:25:04,VALID,1005.94,VALID,0,VALID,93.1639,VALID,0,VALID,24.1105,VALID,346,VALID,0.372656,
2010-03-10, 03:26:04,VALID,1005.94,VALID,0,VALID,92.9884,VALID,0,VALID,24.091,VALID,346,VALID,0.342187,
2010-03-10, 03:27:04,VALID,1005.96,VALID,0,VALID,93.0647,VALID,0.100563,VALID,24.13,VALID,342,VALID,0.602344,
2010-03-10, 03:28:04,VALID,1005.96,VALID,0,VALID,92.9732,VALID,0,VALID,24.1689,VALID,342,VALID,0.538281,
2010-03-10, 03:29:04,VALID,1005.95,VALID,0,VALID,92.8511,VALID,0,VALID,24.1689,VALID,342,VALID,0.0242187,
2010-03-10, 03:30:04,VALID,1005.96,VALID,0,VALID,92.729,VALID,0,VALID,24.1707,VALID,342,VALID,0.551562,
2010-03-10, 03:31:04,VALID,1005.95,VALID,0,VALID,92.6756,VALID,0,VALID,24.2097,VALID,347,VALID,0.334375,
2010-03-10, 03:32:04,VALID,1005.97,VALID,0,VALID,92.5688,VALID,0,VALID,24.1884,VALID,347,VALID,0.0710938,
2010-03-10, 03:33:04,VALID,1005.97,VALID,0,VALID,92.4773,VALID,0,VALID,24.231,VALID,347,VALID,0,
2010-03-10, 03:34:04,VALID,1005.97,VALID,0,VALID,92.462,VALID,0,VALID,24.2486,VALID,347,VALID,0,
2010-03-10, 03:35:04,VALID,1005.95,VALID,0,VALID,92.2942,VALID,0,VALID,24.2097,VALID,347,VALID,0,
2010-03-10, 03:36:04,VALID,1005.98,VALID,0,VALID,92.2179,VALID,0,VALID,24.2097,VALID,347,VALID,0,
2010-03-10, 03:37:04,VALID,1005.97,VALID,0,VALID,92.3629,VALID,0,VALID,24.2097,VALID,347,VALID,0,
2010-03-10, 03:38:04,VALID,1006,VALID,0,VALID,92.4391,VALID,0,VALID,24.2291,VALID,358,VALID,0,
2010-03-10, 03:39:04,VALID,1006.02,VALID,0,VALID,92.3934,VALID,0,VALID,24.2504,VALID,358,VALID,0,
2010-03-10, 03:40:04,VALID,1006.03,VALID,0,VALID,92.2332,VALID,0,VALID,24.1707,VALID,358,VALID,0,
2010-03-10, 03:41:04,VALID,1006.05,VALID,0,VALID,92.3018,VALID,0,VALID,24.1707,VALID,356,VALID,0,
2010-03-10, 03:42:04,VALID,1006.06,VALID,0,VALID,92.4239,VALID,0,VALID,24.1707,VALID,356,VALID,0,
2010-03-10, 03:43:04,VALID,1006.06,VALID,0,VALID,92.4315,VALID,0,VALID,24.1513,VALID,356,VALID,0,
2010-03-10, 03:44:04,VALID,1006.11,VALID,0,VALID,92.5078,VALID,0,VALID,24.1531,VALID,356,VALID,0,
2010-03-10, 03:45:04,VALID,1006.08,VALID,0,VALID,92.546,VALID,0,VALID,24.1105,VALID,356,VALID,0,
2010-03-10, 03:46:04,VALID,1006.1,VALID,0,VALID,92.5917,VALID,0.100563,VALID,24.1513,VALID,356,VALID,0,
2010-03-10, 03:47:04,VALID,1006.1,VALID,0,VALID,92.6375,VALID,0,VALID,24.13,VALID,343,VALID,0,
2010-03-10, 03:48:04,VALID,1006.1,VALID,0,VALID,92.607,VALID,0,VALID,24.13,VALID,343,VALID,0,
2010-03-10, 03:49:04,VALID,1006.07,VALID,0,VALID,92.5536,VALID,0.100563,VALID,24.1494,VALID,343,VALID,0,